This is the latest recevied weather packets stored in our database for station/object IZ3MEZ-13. If no packets are shown the sender has not sent any weather packets the latest 1 day(s).
| Time | Temp. | Humidity | Pressure | Rain* | Wind** | Luminosity | Snow |
|---|---|---|---|---|---|---|---|
| 1778007923 | 13.89° C | 90% | 1014.8 hPa | 0 mm | 0.89 m/s, 17° | 0 W/m² | - |
| 1778007320 | 13.89° C | 90% | 1014.8 hPa | 0 mm | 0.89 m/s, 21° | 0 W/m² | - |
| 1778006719 | 13.89° C | 90% | 1014.8 hPa | 0 mm | 0.89 m/s, 18° | 0 W/m² | - |
| 1778006125 | 13.89° C | 90% | 1014.7 hPa | 0 mm | 0.89 m/s, 6° | 0 W/m² | - |
| 1778005516 | 13.89° C | 90% | 1014.6 hPa | 0 mm | 0.89 m/s, 16° | 0 W/m² | - |
| 1778004921 | 13.89° C | 90% | 1014.4 hPa | 0 mm | 0.89 m/s, 12° | 0 W/m² | - |
| 1778004320 | 13.89° C | 90% | 1014.5 hPa | 0 mm | 0.89 m/s, 17° | 0 W/m² | - |
| 1778003716 | 14.44° C | 90% | 1014.4 hPa | 0 mm | 0.89 m/s, 12° | 2 W/m² | - |
| 1778003123 | 14.44° C | 90% | 1014.5 hPa | 0 mm | 0.89 m/s, 360° | 4 W/m² | - |
| 1778002521 | 14.44° C | 90% | 1014.6 hPa | 0 mm | 0.45 m/s, 10° | 3 W/m² | - |
| 1778001918 | 14.44° C | 90% | 1014.4 hPa | 0 mm | 0.45 m/s, 8° | 6 W/m² | - |
| 1778001317 | 14.44° C | 90% | 1014.4 hPa | 0 mm | 0.89 m/s, 8° | 6 W/m² | - |
| 1778000716 | 14.44° C | 90% | 1014.4 hPa | 0 mm | 0.89 m/s, 12° | 8 W/m² | - |
| 1778000118 | 14.44° C | 90% | 1014.4 hPa | 0 mm | 0.45 m/s, 357° | 11 W/m² | - |
| 1777999525 | 14.44° C | 90% | 1014.5 hPa | 0 mm | 1.34 m/s, 4° | 17 W/m² | - |
| 1777998924 | 14.44° C | 90% | 1014.6 hPa | 0 mm | 1.34 m/s, 7° | 21 W/m² | - |
| 1777998325 | 14.44° C | 90% | 1014.5 hPa | 0 mm | 0.89 m/s, 11° | 13 W/m² | - |
| 1777997719 | 14.44° C | 90% | 1014.6 hPa | 0 mm | 0.89 m/s, 19° | 19 W/m² | - |
| 1777997130 | 14.44° C | 90% | 1014.6 hPa | 0 mm | 0.89 m/s, 14° | 15 W/m² | - |
| 1777996522 | 15° C | 89% | 1014.7 hPa | 0 mm | 1.34 m/s, 10° | 20 W/m² | - |
| 1777995923 | 15° C | 89% | 1014.7 hPa | 0 mm | 0.89 m/s, 15° | 8 W/m² | - |
| 1777995318 | 15° C | 88% | 1014.7 hPa | 0 mm | 1.34 m/s, 9° | 14 W/m² | - |
| 1777994723 | 15° C | 88% | 1014.7 hPa | 0 mm | 0.89 m/s, 8° | 15 W/m² | - |
| 1777994123 | 15.56° C | 87% | 1014.6 hPa | 0 mm | 1.34 m/s, 9° | 11 W/m² | - |
| 1777993520 | 16.11° C | 87% | 1014.6 hPa | 0 mm | 0.89 m/s, 13° | 17 W/m² | - |
* Rain latest hour (hover to see other rain measurements)
** Current wind speed in m/s (hover to see current wind gust speed)